,,,PA_Meas_PMT16A,,PR_Meas_QMR101_102,,RH_Meas_QMH101,,SR_Meas_QMS101,,TA_Meas_QMH101,,GenWind,,GenWind,
date,time,status,PA,status,PR,status,RH,status,SR,status,TA,status,DirAvg,status,SpdAvg,
2011-11-15, 00:00:05,VALID,1003.46,VALID,0,VALID,85.6647,VALID,0,VALID,26.8193,VALID,352,VALID,1.38242,
2011-11-15, 00:01:05,VALID,1003.47,VALID,0,VALID,85.7181,VALID,0.0815089,VALID,26.7958,VALID,22,VALID,1.38672,
2011-11-15, 00:02:05,VALID,1003.48,VALID,0,VALID,85.741,VALID,0.0815089,VALID,26.7978,VALID,3,VALID,0.936328,
2011-11-15, 00:03:05,VALID,1003.46,VALID,0,VALID,85.8478,VALID,0.0815089,VALID,26.7978,VALID,353,VALID,1.13594,
2011-11-15, 00:04:05,VALID,1003.46,VALID,0,VALID,86.008,VALID,0.0815089,VALID,26.7589,VALID,351,VALID,1.27461,
2011-11-15, 00:05:05,VALID,1003.49,VALID,0,VALID,86.0995,VALID,0,VALID,26.7179,VALID,354,VALID,1.33594,
2011-11-15, 00:06:05,VALID,1003.49,VALID,0,VALID,86.0995,VALID,0,VALID,26.7394,VALID,354,VALID,1.41484,
2011-11-15, 00:07:05,VALID,1003.48,VALID,0,VALID,86.0843,VALID,0.0815089,VALID,26.7199,VALID,360,VALID,1.61055,
2011-11-15, 00:08:05,VALID,1003.49,VALID,0,VALID,86.1148,VALID,0,VALID,26.7199,VALID,3,VALID,1.31328,
2011-11-15, 00:09:05,VALID,1003.5,VALID,0,VALID,86.2292,VALID,0,VALID,26.6809,VALID,360,VALID,1.56289,
2011-11-15, 00:10:05,VALID,1003.51,VALID,0,VALID,86.2979,VALID,0.0815089,VALID,26.6614,VALID,355,VALID,1.3957,
2011-11-15, 00:11:05,VALID,1003.49,VALID,0,VALID,86.4505,VALID,0.0815089,VALID,26.6399,VALID,358,VALID,1.45156,
2011-11-15, 00:12:05,VALID,1003.49,VALID,0,VALID,86.4734,VALID,0.0815089,VALID,26.6225,VALID,358,VALID,1.13555,
2011-11-15, 00:13:05,VALID,1003.44,VALID,0,VALID,86.7633,VALID,0.0815089,VALID,26.6225,VALID,22,VALID,1.56172,
2011-11-15, 00:14:05,VALID,1003.48,VALID,0,VALID,86.7099,VALID,0.0815089,VALID,26.6225,VALID,10,VALID,1.62578,
2011-11-15, 00:15:05,VALID,1003.45,VALID,0,VALID,86.6336,VALID,0.0815089,VALID,26.642,VALID,16,VALID,1.19922,
2011-11-15, 00:16:05,VALID,1003.4,VALID,0,VALID,86.5496,VALID,0,VALID,26.683,VALID,19,VALID,1.50898,
2011-11-15, 00:17:05,VALID,1003.42,VALID,0,VALID,86.4657,VALID,0,VALID,26.6809,VALID,27,VALID,1.36133,
2011-11-15, 00:18:05,VALID,1003.39,VALID,0,VALID,86.2521,VALID,0,VALID,26.7414,VALID,358,VALID,1.80313,
2011-11-15, 00:19:05,VALID,1003.38,VALID,0,VALID,85.9851,VALID,0,VALID,26.7783,VALID,21,VALID,1.79492,
2011-11-15, 00:20:05,VALID,1003.37,VALID,0,VALID,85.8631,VALID,0,VALID,26.8173,VALID,15,VALID,1.22422,
2011-11-15, 00:21:05,VALID,1003.34,VALID,0,VALID,85.6494,VALID,0,VALID,26.8583,VALID,13,VALID,1.53125,
2011-11-15, 00:22:05,VALID,1003.33,VALID,0,VALID,85.5884,VALID,0,VALID,26.8368,VALID,9,VALID,1.40742,
2011-11-15, 00:23:05,VALID,1003.28,VALID,0,VALID,85.7105,VALID,0,VALID,26.8563,VALID,7,VALID,2.33828,
2011-11-15, 00:24:05,VALID,1003.25,VALID,0,VALID,85.6342,VALID,0,VALID,26.8757,VALID,17,VALID,1.90195,
2011-11-15, 00:25:05,VALID,1003.28,VALID,0,VALID,85.5655,VALID,0,VALID,26.8757,VALID,359,VALID,1.86719,
2011-11-15, 00:26:05,VALID,1003.23,VALID,0,VALID,85.5732,VALID,0,VALID,26.8952,VALID,4,VALID,1.98359,
2011-11-15, 00:27:05,VALID,1003.27,VALID,0,VALID,85.6494,VALID,0,VALID,26.8757,VALID,18,VALID,1.03008,
2011-11-15, 00:28:05,VALID,1003.24,VALID,0,VALID,85.8707,VALID,0,VALID,26.8778,VALID,18,VALID,1.43125,
2011-11-15, 00:29:05,VALID,1003.22,VALID,0,VALID,85.9622,VALID,0,VALID,26.8778,VALID,17,VALID,1.7625,
2011-11-15, 00:30:05,VALID,1003.24,VALID,0,VALID,85.8554,VALID,0,VALID,26.8757,VALID,6,VALID,1.26211,
2011-11-15, 00:31:05,VALID,1003.21,VALID,0,VALID,85.9241,VALID,0.0815089,VALID,26.8563,VALID,10,VALID,1.32773,
2011-11-15, 00:32:05,VALID,1003.21,VALID,0,VALID,86.0385,VALID,0.0815089,VALID,26.8153,VALID,11,VALID,1.16719,
2011-11-15, 00:33:05,VALID,1003.2,VALID,0,VALID,86.1606,VALID,0.0815089,VALID,26.7958,VALID,6,VALID,1.12227,
2011-11-15, 00:34:05,VALID,1003.18,VALID,0,VALID,86.1911,VALID,0.0815089,VALID,26.8153,VALID,12,VALID,1.15977,
2011-11-15, 00:35:05,VALID,1003.12,VALID,0,VALID,86.2598,VALID,0.0815089,VALID,26.8153,VALID,8,VALID,1.69727,
2011-11-15, 00:36:05,VALID,1003.1,VALID,0,VALID,86.1758,VALID,0,VALID,26.8757,VALID,21,VALID,2.1418,
2011-11-15, 00:37:05,VALID,1003.08,VALID,0,VALID,85.8783,VALID,0.0815089,VALID,26.9127,VALID,2,VALID,1.54492,
2011-11-15, 00:38:05,VALID,1003.03,VALID,0,VALID,85.8325,VALID,0.0815089,VALID,26.9342,VALID,20,VALID,1.04688,
2011-11-15, 00:39:05,VALID,1003.02,VALID,0,VALID,85.7639,VALID,0.0815089,VALID,26.8932,VALID,19,VALID,1.8,
2011-11-15, 00:40:05,VALID,1003.03,VALID,0,VALID,85.9088,VALID,0.0815089,VALID,26.8952,VALID,28,VALID,1.62578,
2011-11-15, 00:41:05,VALID,1003.02,VALID,0,VALID,86.0385,VALID,0,VALID,26.8952,VALID,18,VALID,1.52383,
2011-11-15, 00:42:05,VALID,1003.02,VALID,0,VALID,86.1148,VALID,0.0815089,VALID,26.8952,VALID,1,VALID,1.15078,
2011-11-15, 00:43:05,VALID,1003.05,VALID,0,VALID,86.1301,VALID,0.0815089,VALID,26.8757,VALID,7,VALID,1.63047,
2011-11-15, 00:44:05,VALID,1003.05,VALID,0,VALID,86.1682,VALID,0,VALID,26.8563,VALID,1,VALID,1.76133,
2011-11-15, 00:45:05,VALID,1003.07,VALID,0,VALID,86.1835,VALID,0.0815089,VALID,26.8563,VALID,12,VALID,1.34297,
2011-11-15, 00:46:05,VALID,1003.05,VALID,0,VALID,86.2445,VALID,0,VALID,26.8193,VALID,25,VALID,1.45195,
2011-11-15, 00:47:05,VALID,1003.05,VALID,0,VALID,86.2369,VALID,0,VALID,26.8193,VALID,17,VALID,1.58477,
2011-11-15, 00:48:05,VALID,1003.06,VALID,0,VALID,86.1911,VALID,0,VALID,26.7998,VALID,8,VALID,0.960938,
2011-11-15, 00:49:05,VALID,1003.04,VALID,0,VALID,86.275,VALID,0,VALID,26.7804,VALID,26,VALID,0.808203,
2011-11-15, 00:50:05,VALID,1003.01,VALID,0,VALID,86.3742,VALID,0,VALID,26.7609,VALID,9,VALID,1.79961,
2011-11-15, 00:51:05,VALID,1002.97,VALID,0,VALID,86.3589,VALID,0,VALID,26.7199,VALID,9,VALID,0.996875,
2011-11-15, 00:52:05,VALID,1002.96,VALID,0,VALID,86.481,VALID,0,VALID,26.7414,VALID,23,VALID,1.32266,
2011-11-15, 00:53:05,VALID,1002.94,VALID,0,VALID,86.4657,VALID,0,VALID,26.7414,VALID,9,VALID,0.889063,
2011-11-15, 00:54:05,VALID,1002.92,VALID,0,VALID,86.5115,VALID,0,VALID,26.7219,VALID,32,VALID,1.35859,
2011-11-15, 00:55:05,VALID,1002.91,VALID,0,VALID,86.5268,VALID,0,VALID,26.7414,VALID,8,VALID,1.45938,
2011-11-15, 00:56:05,VALID,1002.86,VALID,0,VALID,86.542,VALID,0,VALID,26.7199,VALID,21,VALID,2.16523,
2011-11-15, 00:57:05,VALID,1002.85,VALID,0,VALID,86.5115,VALID,0,VALID,26.7394,VALID,21,VALID,1.85,
2011-11-15, 00:58:05,VALID,1002.87,VALID,0,VALID,86.1377,VALID,0,VALID,26.7978,VALID,26,VALID,2.21484,
2011-11-15, 00:59:05,VALID,1002.82,VALID,0,VALID,85.7105,VALID,0,VALID,26.8563,VALID,10,VALID,1.88516,
2011-11-15, 01:00:05,VALID,1002.83,VALID,0,VALID,85.6418,VALID,0,VALID,26.8778,VALID,358,VALID,1.93242,
2011-11-15, 01:01:04,VALID,1002.81,VALID,0,VALID,85.7639,VALID,0,VALID,26.8583,VALID,19,VALID,1.22227,
2011-11-15, 01:02:04,VALID,1002.82,VALID,0,VALID,85.947,VALID,0,VALID,26.8193,VALID,357,VALID,1.66211,
2011-11-15, 01:03:04,VALID,1002.79,VALID,0,VALID,85.9775,VALID,0,VALID,26.8214,VALID,6,VALID,2.09102,
2011-11-15, 01:04:04,VALID,1002.78,VALID,0,VALID,85.947,VALID,0,VALID,26.8193,VALID,1,VALID,1.15469,
2011-11-15, 01:05:04,VALID,1002.76,VALID,0,VALID,86.0767,VALID,0,VALID,26.7804,VALID,27,VALID,1.53242,
2011-11-15, 01:06:04,VALID,1002.78,VALID,0,VALID,86.1758,VALID,0,VALID,26.7824,VALID,6,VALID,1.70742,
2011-11-15, 01:07:04,VALID,1002.73,VALID,0,VALID,86.1377,VALID,0,VALID,26.7414,VALID,10,VALID,1.53555,
2011-11-15, 01:08:04,VALID,1002.72,VALID,0,VALID,86.3513,VALID,0,VALID,26.7414,VALID,27,VALID,0.806641,
2011-11-15, 01:09:04,VALID,1002.73,VALID,0,VALID,86.4123,VALID,0,VALID,26.7004,VALID,16,VALID,0.940625,
2011-11-15, 01:10:04,VALID,1002.75,VALID,0,VALID,86.4428,VALID,0,VALID,26.7024,VALID,24,VALID,0.975781,
2011-11-15, 01:11:04,VALID,1002.76,VALID,0,VALID,86.5496,VALID,0,VALID,26.6635,VALID,17,VALID,1.25117,
2011-11-15, 01:12:04,VALID,1002.74,VALID,0,VALID,86.7404,VALID,0,VALID,26.603,VALID,13,VALID,0.711328,
2011-11-15, 01:13:04,VALID,1002.77,VALID,0,VALID,86.7556,VALID,0,VALID,26.605,VALID,22,VALID,2.11719,
2011-11-15, 01:14:04,VALID,1002.76,VALID,0,VALID,86.6641,VALID,0,VALID,26.605,VALID,353,VALID,0.996875,
2011-11-15, 01:15:04,VALID,1002.77,VALID,0,VALID,86.5649,VALID,0,VALID,26.6245,VALID,347,VALID,1.27617,
2011-11-15, 01:16:04,VALID,1002.78,VALID,0,VALID,86.4962,VALID,0,VALID,26.644,VALID,5,VALID,1.15039,
2011-11-15, 01:17:04,VALID,1002.79,VALID,0,VALID,86.3818,VALID,0,VALID,26.6245,VALID,4,VALID,1.39414,
2011-11-15, 01:18:04,VALID,1002.77,VALID,0,VALID,86.1835,VALID,0,VALID,26.644,VALID,21,VALID,1.24922,
2011-11-15, 01:19:04,VALID,1002.83,VALID,0,VALID,86.1911,VALID,0,VALID,26.644,VALID,346,VALID,1.33477,
2011-11-15, 01:20:04,VALID,1002.83,VALID,0,VALID,86.2292,VALID,0,VALID,26.644,VALID,352,VALID,0.802734,
2011-11-15, 01:21:04,VALID,1002.84,VALID,0,VALID,86.2521,VALID,0,VALID,26.644,VALID,349,VALID,0.736328,
2011-11-15, 01:22:04,VALID,1002.88,VALID,0,VALID,86.3208,VALID,0,VALID,26.6265,VALID,6,VALID,1.17891,
2011-11-15, 01:23:04,VALID,1002.87,VALID,0,VALID,86.0843,VALID,0,VALID,26.605,VALID,24,VALID,1.95313,
2011-11-15, 01:24:04,VALID,1002.87,VALID,0,VALID,86.0004,VALID,0,VALID,26.6245,VALID,2,VALID,1.35273,
2011-11-15, 01:25:04,VALID,1002.91,VALID,0,VALID,85.9775,VALID,0,VALID,26.6245,VALID,341,VALID,1.17578,
2011-11-15, 01:26:04,VALID,1002.88,VALID,0,VALID,86.1835,VALID,0,VALID,26.605,VALID,347,VALID,0.740234,
2011-11-15, 01:27:04,VALID,1002.91,VALID,0,VALID,86.1529,VALID,0,VALID,26.5855,VALID,357,VALID,0.891797,
2011-11-15, 01:28:04,VALID,1002.92,VALID,0,VALID,86.3284,VALID,0,VALID,26.5466,VALID,355,VALID,0.985156,
2011-11-15, 01:29:04,VALID,1002.89,VALID,0,VALID,86.4657,VALID,0,VALID,26.4861,VALID,11,VALID,0.556641,
2011-11-15, 01:30:04,VALID,1002.9,VALID,0,VALID,86.6259,VALID,0,VALID,26.4687,VALID,360,VALID,0.634375,
2011-11-15, 01:31:04,VALID,1002.86,VALID,0,VALID,86.7861,VALID,0,VALID,26.4297,VALID,352,VALID,0.922266,
2011-11-15, 01:32:04,VALID,1002.87,VALID,0,VALID,86.9311,VALID,0,VALID,26.3907,VALID,356,VALID,0.750781,
2011-11-15, 01:33:04,VALID,1002.85,VALID,0,VALID,86.9845,VALID,0,VALID,26.3713,VALID,1,VALID,0.747266,
2011-11-15, 01:34:04,VALID,1002.83,VALID,0,VALID,87.0837,VALID,0,VALID,26.3323,VALID,4,VALID,1.12305,
2011-11-15, 01:35:04,VALID,1002.81,VALID,0,VALID,87.2134,VALID,0,VALID,26.3108,VALID,23,VALID,0.833594,
2011-11-15, 01:36:04,VALID,1002.79,VALID,0,VALID,87.3049,VALID,0,VALID,26.2933,VALID,12,VALID,0.916797,
2011-11-15, 01:37:04,VALID,1002.75,VALID,0,VALID,87.2362,VALID,0,VALID,26.2739,VALID,16,VALID,0.780078,
2011-11-15, 01:38:04,VALID,1002.74,VALID,0,VALID,87.2439,VALID,0,VALID,26.2739,VALID,14,VALID,1.11953,
2011-11-15, 01:39:04,VALID,1002.71,VALID,0,VALID,87.2134,VALID,0,VALID,26.2953,VALID,16,VALID,0.826953,
2011-11-15, 01:40:04,VALID,1002.69,VALID,0,VALID,87.0532,VALID,0,VALID,26.2524,VALID,11,VALID,1.12773,
2011-11-15, 01:41:04,VALID,1002.63,VALID,0,VALID,86.9235,VALID,0,VALID,26.2933,VALID,358,VALID,1.0582,
2011-11-15, 01:42:04,VALID,1002.58,VALID,0,VALID,86.7556,VALID,0,VALID,26.3323,VALID,356,VALID,0.898047,
2011-11-15, 01:43:04,VALID,1002.57,VALID,0,VALID,86.687,VALID,0,VALID,26.3108,VALID,357,VALID,0.43125,
2011-11-15, 01:44:04,VALID,1002.57,VALID,0,VALID,86.6183,VALID,0,VALID,26.3323,VALID,348,VALID,0.982422,
2011-11-15, 01:45:04,VALID,1002.51,VALID,0,VALID,86.5725,VALID,0,VALID,26.3108,VALID,355,VALID,0.855078,
2011-11-15, 01:46:04,VALID,1002.53,VALID,0,VALID,86.5725,VALID,0,VALID,26.3303,VALID,350,VALID,0.786719,
2011-11-15, 01:47:04,VALID,1002.51,VALID,0,VALID,86.7175,VALID,0,VALID,26.3108,VALID,352,VALID,0.769531,
2011-11-15, 01:48:04,VALID,1002.48,VALID,0,VALID,86.8395,VALID,0,VALID,26.2739,VALID,352,VALID,0.595703,
2011-11-15, 01:49:04,VALID,1002.48,VALID,0,VALID,87.1218,VALID,0,VALID,26.2134,VALID,350,VALID,0.720312,
2011-11-15, 01:50:04,VALID,1002.45,VALID,0,VALID,87.3888,VALID,0,VALID,26.1745,VALID,349,VALID,0.811719,
2011-11-15, 01:51:04,VALID,1002.43,VALID,0,VALID,87.6558,VALID,0,VALID,26.1375,VALID,349,VALID,0.503516,
2011-11-15, 01:52:04,VALID,1002.45,VALID,0,VALID,87.9076,VALID,0,VALID,26.0381,VALID,351,VALID,0.6625,
2011-11-15, 01:53:04,VALID,1002.41,VALID,0,VALID,88.1059,VALID,0,VALID,25.9797,VALID,351,VALID,0.601563,
2011-11-15, 01:54:04,VALID,1002.42,VALID,0,VALID,88.0831,VALID,0,VALID,25.9797,VALID,351,VALID,0.705469,
2011-11-15, 01:55:04,VALID,1002.38,VALID,0,VALID,88.2356,VALID,0,VALID,25.9622,VALID,351,VALID,0.733203,
2011-11-15, 01:56:04,VALID,1002.39,VALID,0,VALID,88.3882,VALID,0,VALID,25.9408,VALID,351,VALID,0.615234,
2011-11-15, 01:57:04,VALID,1002.38,VALID,0,VALID,88.1746,VALID,0,VALID,26.0012,VALID,9,VALID,0.666797,
2011-11-15, 01:58:04,VALID,1002.42,VALID,0,VALID,87.8466,VALID,0,VALID,26.0187,VALID,354,VALID,0.775391,
2011-11-15, 01:59:04,VALID,1002.43,VALID,0,VALID,87.8008,VALID,0,VALID,26.0596,VALID,358,VALID,0.900781,
2011-11-15, 02:00:04,VALID,1002.43,VALID,0,VALID,87.694,VALID,0,VALID,26.0576,VALID,3,VALID,0.947656,
2011-11-15, 02:01:04,VALID,1002.42,VALID,0,VALID,87.4804,VALID,0.0815089,VALID,26.0791,VALID,347,VALID,0.719531,
2011-11-15, 02:02:04,VALID,1002.43,VALID,0,VALID,87.6635,VALID,0,VALID,26.0791,VALID,354,VALID,1.13555,
2011-11-15, 02:03:04,VALID,1002.41,VALID,0,VALID,87.5414,VALID,0,VALID,26.0771,VALID,354,VALID,0.701563,
2011-11-15, 02:04:04,VALID,1002.41,VALID,0,VALID,87.6329,VALID,0,VALID,26.0381,VALID,356,VALID,0.704687,
2011-11-15, 02:05:04,VALID,1002.37,VALID,0,VALID,87.7016,VALID,0,VALID,26.0596,VALID,356,VALID,0.794531,
2011-11-15, 02:06:04,VALID,1002.33,VALID,0,VALID,87.8313,VALID,0,VALID,26.0206,VALID,356,VALID,0.959375,
2011-11-15, 02:07:04,VALID,1002.31,VALID,0,VALID,87.9228,VALID,0,VALID,26.0012,VALID,356,VALID,0.940234,
2011-11-15, 02:08:04,VALID,1002.29,VALID,0,VALID,88.0068,VALID,0,VALID,25.9797,VALID,353,VALID,1.04766,
2011-11-15, 02:09:04,VALID,1002.28,VALID,0,VALID,87.8771,VALID,0,VALID,25.9797,VALID,9,VALID,0.940625,
2011-11-15, 02:10:04,VALID,1002.26,VALID,0,VALID,87.7626,VALID,0,VALID,26.0187,VALID,335,VALID,1.22617,
2011-11-15, 02:11:04,VALID,1002.24,VALID,0,VALID,87.5795,VALID,0,VALID,26.0791,VALID,359,VALID,1.0293,
2011-11-15, 02:12:04,VALID,1002.26,VALID,0,VALID,87.3888,VALID,0,VALID,26.0966,VALID,9,VALID,1.00586,
2011-11-15, 02:13:04,VALID,1002.24,VALID,0,VALID,87.1905,VALID,0,VALID,26.1765,VALID,357,VALID,0.966797,
2011-11-15, 02:14:04,VALID,1002.22,VALID,0,VALID,86.8853,VALID,0,VALID,26.194,VALID,359,VALID,1.51641,
2011-11-15, 02:15:04,VALID,1002.24,VALID,0,VALID,86.5496,VALID,0,VALID,26.2524,VALID,348,VALID,1.14336,
2011-11-15, 02:16:04,VALID,1002.22,VALID,0,VALID,86.3513,VALID,0,VALID,26.3108,VALID,356,VALID,0.758203,
2011-11-15, 02:17:04,VALID,1002.25,VALID,0,VALID,86.2903,VALID,0,VALID,26.3323,VALID,4,VALID,1.00586,
2011-11-15, 02:18:04,VALID,1002.24,VALID,0,VALID,86.3284,VALID,0,VALID,26.3108,VALID,353,VALID,0.947656,
2011-11-15, 02:19:04,VALID,1002.25,VALID,0,VALID,86.3132,VALID,0,VALID,26.2913,VALID,6,VALID,1.45664,
2011-11-15, 02:20:04,VALID,1002.27,VALID,0,VALID,86.1529,VALID,0,VALID,26.3713,VALID,5,VALID,0.826563,
2011-11-15, 02:21:04,VALID,1002.3,VALID,0,VALID,85.8402,VALID,0,VALID,26.4102,VALID,11,VALID,0.977734,
2011-11-15, 02:22:04,VALID,1002.31,VALID,0,VALID,85.6952,VALID,0,VALID,26.4277,VALID,7,VALID,0.73125,
2011-11-15, 02:23:04,VALID,1002.33,VALID,0,VALID,85.4587,VALID,0,VALID,26.4472,VALID,1,VALID,1.08438,
2011-11-15, 02:24:04,VALID,1002.32,VALID,0,VALID,85.1307,VALID,0,VALID,26.4861,VALID,348,VALID,1.60508,
2011-11-15, 02:25:04,VALID,1002.31,VALID,0,VALID,84.8942,VALID,0,VALID,26.5446,VALID,12,VALID,1.48008,
2011-11-15, 02:26:04,VALID,1002.3,VALID,0,VALID,84.6119,VALID,0,VALID,26.5835,VALID,352,VALID,1.02617,
2011-11-15, 02:27:04,VALID,1002.32,VALID,0,VALID,84.589,VALID,0,VALID,26.5815,VALID,353,VALID,0.950781,
2011-11-15, 02:28:04,VALID,1002.29,VALID,0,VALID,84.6729,VALID,0,VALID,26.5835,VALID,8,VALID,1.23047,
2011-11-15, 02:29:04,VALID,1002.3,VALID,0,VALID,84.4441,VALID,0,VALID,26.603,VALID,344,VALID,1.20664,
2011-11-15, 02:30:04,VALID,1002.3,VALID,0,VALID,84.5204,VALID,0,VALID,26.603,VALID,360,VALID,1.18984,
2011-11-15, 02:31:04,VALID,1002.29,VALID,0,VALID,84.6653,VALID,0,VALID,26.562,VALID,13,VALID,0.883594,
2011-11-15, 02:32:04,VALID,1002.29,VALID,0,VALID,84.5585,VALID,0,VALID,26.6245,VALID,353,VALID,1.10117,
2011-11-15, 02:33:04,VALID,1002.27,VALID,0,VALID,84.528,VALID,0.0815089,VALID,26.603,VALID,10,VALID,1.11836,
2011-11-15, 02:34:04,VALID,1002.3,VALID,0,VALID,84.5204,VALID,0,VALID,26.603,VALID,342,VALID,1.3082,
2011-11-15, 02:35:04,VALID,1002.3,VALID,0,VALID,84.4517,VALID,0,VALID,26.603,VALID,351,VALID,1.22852,
2011-11-15, 02:36:04,VALID,1002.3,VALID,0,VALID,84.4441,VALID,0,VALID,26.6245,VALID,1,VALID,0.883594,
2011-11-15, 02:37:04,VALID,1002.31,VALID,0,VALID,84.528,VALID,0,VALID,26.603,VALID,6,VALID,1.05664,
2011-11-15, 02:38:04,VALID,1002.31,VALID,0,VALID,84.7035,VALID,0,VALID,26.605,VALID,356,VALID,1.14648,
2011-11-15, 02:39:04,VALID,1002.27,VALID,0,VALID,84.5127,VALID,0,VALID,26.5835,VALID,346,VALID,1.51758,
2011-11-15, 02:40:04,VALID,1002.27,VALID,0,VALID,84.4136,VALID,0,VALID,26.603,VALID,348,VALID,1.0418,
2011-11-15, 02:41:04,VALID,1002.28,VALID,0,VALID,84.467,VALID,0,VALID,26.6225,VALID,355,VALID,1.05547,
2011-11-15, 02:42:04,VALID,1002.28,VALID,0,VALID,84.4212,VALID,0,VALID,26.642,VALID,345,VALID,0.896875,
2011-11-15, 02:43:04,VALID,1002.26,VALID,0,VALID,84.3449,VALID,0,VALID,26.683,VALID,360,VALID,1.31289,
2011-11-15, 02:44:04,VALID,1002.28,VALID,0,VALID,84.2839,VALID,0,VALID,26.683,VALID,4,VALID,1.1375,
2011-11-15, 02:45:04,VALID,1002.29,VALID,0,VALID,84.1771,VALID,0,VALID,26.6809,VALID,360,VALID,0.90625,
2011-11-15, 02:46:04,VALID,1002.3,VALID,0,VALID,84.1618,VALID,0,VALID,26.6809,VALID,9,VALID,1.14922,
2011-11-15, 02:47:04,VALID,1002.3,VALID,0,VALID,84.0169,VALID,0,VALID,26.7004,VALID,6,VALID,1.22344,
2011-11-15, 02:48:04,VALID,1002.31,VALID,0,VALID,84.0321,VALID,0,VALID,26.7199,VALID,6,VALID,1.3,
2011-11-15, 02:49:04,VALID,1002.26,VALID,0,VALID,83.727,VALID,0,VALID,26.7609,VALID,2,VALID,1.70352,
2011-11-15, 02:50:04,VALID,1002.28,VALID,0,VALID,83.6736,VALID,0,VALID,26.7978,VALID,356,VALID,0.978516,
2011-11-15, 02:51:04,VALID,1002.27,VALID,0,VALID,83.5286,VALID,0,VALID,26.7783,VALID,6,VALID,1.56055,
2011-11-15, 02:52:04,VALID,1002.27,VALID,0,VALID,83.5744,VALID,0,VALID,26.7978,VALID,5,VALID,1.15625,
2011-11-15, 02:53:04,VALID,1002.26,VALID,0,VALID,83.6736,VALID,0,VALID,26.7978,VALID,14,VALID,0.919141,
2011-11-15, 02:54:04,VALID,1002.28,VALID,0,VALID,83.5973,VALID,0,VALID,26.7998,VALID,350,VALID,1.18008,
2011-11-15, 02:55:04,VALID,1002.29,VALID,0,VALID,83.6812,VALID,0,VALID,26.7783,VALID,3,VALID,0.979688,
2011-11-15, 02:56:04,VALID,1002.29,VALID,0,VALID,83.7651,VALID,0,VALID,26.7589,VALID,8,VALID,0.844141,
2011-11-15, 02:57:04,VALID,1002.28,VALID,0,VALID,84.0092,VALID,0,VALID,26.7609,VALID,6,VALID,0.856641,
2011-11-15, 02:58:04,VALID,1002.31,VALID,0,VALID,83.7956,VALID,0,VALID,26.7609,VALID,356,VALID,1.28828,
2011-11-15, 02:59:04,VALID,1002.31,VALID,0,VALID,83.727,VALID,0,VALID,26.7609,VALID,20,VALID,1.26875,
2011-11-15, 03:00:04,VALID,1002.36,VALID,0,VALID,83.9024,VALID,0,VALID,26.7394,VALID,360,VALID,1.17383,
2011-11-15, 03:01:04,VALID,1002.35,VALID,0,VALID,84.0245,VALID,0,VALID,26.7414,VALID,356,VALID,0.929688,
2011-11-15, 03:02:04,VALID,1002.41,VALID,0,VALID,84.0779,VALID,0,VALID,26.7199,VALID,20,VALID,0.773828,
2011-11-15, 03:03:04,VALID,1002.43,VALID,0,VALID,84.2152,VALID,0,VALID,26.7219,VALID,343,VALID,0.939844,
2011-11-15, 03:04:04,VALID,1002.47,VALID,0,VALID,84.3983,VALID,0,VALID,26.683,VALID,349,VALID,1.03164,
2011-11-15, 03:05:04,VALID,1002.47,VALID,0,VALID,84.4975,VALID,0,VALID,26.6245,VALID,349,VALID,1.06797,
2011-11-15, 03:06:04,VALID,1002.46,VALID,0,VALID,84.7569,VALID,0,VALID,26.5835,VALID,3,VALID,0.941406,
2011-11-15, 03:07:04,VALID,1002.46,VALID,0,VALID,84.8942,VALID,0,VALID,26.5855,VALID,355,VALID,0.864844,
2011-11-15, 03:08:04,VALID,1002.47,VALID,0,VALID,85.0391,VALID,0,VALID,26.5466,VALID,8,VALID,1.57656,
2011-11-15, 03:09:04,VALID,1002.45,VALID,0,VALID,85.0391,VALID,0,VALID,26.5251,VALID,359,VALID,1.19453,
2011-11-15, 03:10:04,VALID,1002.43,VALID,0,VALID,85.207,VALID,0,VALID,26.5271,VALID,3,VALID,0.850391,
2011-11-15, 03:11:04,VALID,1002.41,VALID,0,VALID,85.1993,VALID,0,VALID,26.5056,VALID,351,VALID,1.18633,
2011-11-15, 03:12:04,VALID,1002.41,VALID,0,VALID,85.3061,VALID,0,VALID,26.4861,VALID,16,VALID,0.719141,
2011-11-15, 03:13:04,VALID,1002.4,VALID,0,VALID,85.0696,VALID,0,VALID,26.4861,VALID,3,VALID,1.66797,
2011-11-15, 03:14:04,VALID,1002.39,VALID,0,VALID,84.9476,VALID,0,VALID,26.5251,VALID,357,VALID,1.28477,
2011-11-15, 03:15:04,VALID,1002.38,VALID,0,VALID,84.9705,VALID,0,VALID,26.5251,VALID,356,VALID,0.977344,
2011-11-15, 03:16:04,VALID,1002.38,VALID,0,VALID,85.0086,VALID,0,VALID,26.5661,VALID,3,VALID,0.967188,
2011-11-15, 03:17:04,VALID,1002.38,VALID,0,VALID,84.9628,VALID,0,VALID,26.5661,VALID,8,VALID,1.13047,
2011-11-15, 03:18:04,VALID,1002.4,VALID,0,VALID,84.9705,VALID,0,VALID,26.5661,VALID,347,VALID,0.820313,
2011-11-15, 03:19:04,VALID,1002.4,VALID,0,VALID,84.9857,VALID,0,VALID,26.5466,VALID,21,VALID,1.4168,
2011-11-15, 03:20:04,VALID,1002.38,VALID,0,VALID,85.0162,VALID,0,VALID,26.5251,VALID,16,VALID,1.01914,
2011-11-15, 03:21:04,VALID,1002.4,VALID,0,VALID,84.9781,VALID,0,VALID,26.5446,VALID,356,VALID,0.625391,
2011-11-15, 03:22:04,VALID,1002.4,VALID,0,VALID,84.9094,VALID,0,VALID,26.5446,VALID,10,VALID,1.1793,
2011-11-15, 03:23:04,VALID,1002.4,VALID,0,VALID,84.8255,VALID,0,VALID,26.605,VALID,357,VALID,0.785156,
2011-11-15, 03:24:04,VALID,1002.38,VALID,0,VALID,84.734,VALID,0,VALID,26.5855,VALID,354,VALID,1.45195,
2011-11-15, 03:25:04,VALID,1002.38,VALID,0,VALID,84.7187,VALID,0,VALID,26.605,VALID,3,VALID,1.00742,
2011-11-15, 03:26:04,VALID,1002.37,VALID,0,VALID,84.6577,VALID,0,VALID,26.605,VALID,353,VALID,0.967969,
2011-11-15, 03:27:04,VALID,1002.35,VALID,0,VALID,84.7111,VALID,0,VALID,26.605,VALID,13,VALID,0.9625,
2011-11-15, 03:28:04,VALID,1002.36,VALID,0,VALID,84.8942,VALID,0,VALID,26.5446,VALID,348,VALID,0.616797,
2011-11-15, 03:29:04,VALID,1002.35,VALID,0,VALID,84.9781,VALID,0,VALID,26.5466,VALID,16,VALID,1.35273,
2011-11-15, 03:30:04,VALID,1002.33,VALID,0,VALID,84.8942,VALID,0,VALID,26.5661,VALID,352,VALID,1.14766,
2011-11-15, 03:31:04,VALID,1002.31,VALID,0,VALID,84.9934,VALID,0,VALID,26.5251,VALID,10,VALID,1.14297,
2011-11-15, 03:32:04,VALID,1002.3,VALID,0,VALID,85.1307,VALID,0,VALID,26.4861,VALID,350,VALID,0.746484,
2011-11-15, 03:33:04,VALID,1002.27,VALID,0,VALID,85.2833,VALID,0,VALID,26.4667,VALID,2,VALID,0.898828,
2011-11-15, 03:34:04,VALID,1002.32,VALID,0,VALID,85.4892,VALID,0,VALID,26.4277,VALID,358,VALID,1.09414,
2011-11-15, 03:35:04,VALID,1002.29,VALID,0,VALID,85.68,VALID,0,VALID,26.3867,VALID,352,VALID,0.947656,
2011-11-15, 03:36:04,VALID,1002.3,VALID,0,VALID,85.6876,VALID,0,VALID,26.3907,VALID,357,VALID,0.943359,
2011-11-15, 03:37:04,VALID,1002.29,VALID,0,VALID,85.7944,VALID,0,VALID,26.3713,VALID,350,VALID,0.916797,
2011-11-15, 03:38:04,VALID,1002.31,VALID,0,VALID,86.0004,VALID,0,VALID,26.3108,VALID,345,VALID,0.887891,
2011-11-15, 03:39:04,VALID,1002.28,VALID,0,VALID,86.1682,VALID,0,VALID,26.2933,VALID,344,VALID,0.821875,
2011-11-15, 03:40:04,VALID,1002.27,VALID,0,VALID,86.3208,VALID,0,VALID,26.2719,VALID,355,VALID,1.73945,
2011-11-15, 03:41:04,VALID,1002.26,VALID,0,VALID,86.1453,VALID,0,VALID,26.2913,VALID,28,VALID,1.01563,
2011-11-15, 03:42:04,VALID,1002.27,VALID,0,VALID,86.1682,VALID,0,VALID,26.2913,VALID,2,VALID,1.06367,
2011-11-15, 03:43:04,VALID,1002.27,VALID,0,VALID,86.1072,VALID,0,VALID,26.3303,VALID,10,VALID,1.25117,
2011-11-15, 03:44:04,VALID,1002.3,VALID,0,VALID,85.8554,VALID,0,VALID,26.3887,VALID,352,VALID,0.877734,
2011-11-15, 03:45:04,VALID,1002.32,VALID,0,VALID,85.7486,VALID,0,VALID,26.4082,VALID,17,VALID,0.644141,